FW1079 Weather Reports


Display with metric or nautical units.
time (UTC)temp
F
wind
direction
speed
MPH
gust
MPH
rain 1hr
in
rain 24hr
in
rain mn
in
humidity
%
barometer
mb
20260503225421 51 304 3.0 5.0 0.00 0.00 0.00 79 1018.0
20260503224924 51 305 0.0 5.0 0.00 0.00 0.00 79 1018.0
20260503224421 52 297 2.0 5.0 0.00 0.00 0.00 79 1018.0
20260503223921 53 281 3.0 6.0 0.00 0.00 0.00 80 1018.0
20260503223421 52 280 2.0 5.0 0.00 0.00 0.00 80 1018.0
20260503222921 52 266 0.0 5.0 0.00 0.00 0.00 80 1018.0
20260503222421 52 301 4.0 5.0 0.00 0.00 0.00 80 1018.0
20260503221924 52 270 3.0 7.0 0.00 0.00 0.00 80 1018.0
20260503221421 52 240 4.0 7.0 0.00 0.00 0.00 80 1018.0
20260503220921 52 271 4.0 5.0 0.00 0.00 0.00 80 1018.0
20260503220421 52 257 0.0 5.0 0.00 0.00 0.00 80 1018.0
20260503215921 52 266 0.0 6.0 0.00 0.00 0.00 80 1018.0
20260503215421 52 298 3.0 5.0 0.00 0.00 0.00 79 1018.0
20260503214921 51 272 0.0 5.0 0.00 0.00 0.00 78 1018.0
20260503214424 52 271 0.0 5.0 0.00 0.00 0.00 78 1018.0
20260503213921 52 260 3.0 5.0 0.00 0.00 0.00 78 1018.0
20260503213421 52 293 0.0 4.0 0.00 0.00 0.00 78 1018.0
20260503212920 52 291 2.0 4.0 0.00 0.00 0.00 78 1018.0
20260503212421 52 266 0.0 4.0 0.00 0.00 0.00 78 1018.0
20260503211921 52 315 3.0 5.0 0.00 0.00 0.00 78 1018.0
20260503211421 52 312 0.0 6.0 0.00 0.00 0.00 77 1018.0
20260503210924 52 311 4.0 5.0 0.00 0.00 0.00 76 1018.0
20260503210420 52 299 2.0 4.0 0.00 0.00 0.00 76 1018.0
20260503205921 53 310 0.0 4.0 0.00 0.00 0.00 76 1018.0
20260503205421 53 318 2.0 5.0 0.00 0.00 0.00 76 1018.0
20260503204921 53 282 2.0 6.0 0.00 0.00 0.00 76 1018.0
20260503204421 53 292 2.0 6.0 0.00 0.00 0.00 76 1018.0
20260503203920 53 305 4.0 6.0 0.00 0.00 0.00 76 1018.0
20260503203421 53 305 4.0 6.0 0.00 0.00 0.00 75 1018.0
20260503202920 53 309 4.0 6.0 0.00 0.00 0.00 75 1018.0
20260503202421 53 314 4.0 6.0 0.00 0.00 0.00 74 1018.0
20260503201921 53 314 0.0 4.0 0.00 0.00 0.00 74 1018.0
20260503201420 53 310 2.0 5.0 0.00 0.00 0.00 73 1018.0
20260503200923 53 315 4.0 7.0 0.00 0.00 0.00 73 1018.0
20260503200421 54 307 0.0 5.0 0.00 0.00 0.00 72 1018.0
20260503195920 54 306 3.0 6.0 0.00 0.00 0.00 72 1018.0
20260503195424 54 313 0.0 4.0 0.00 0.00 0.00 71 1018.0
20260503194920 55 307 0.0 3.0 0.00 0.00 0.00 71 1018.0
20260503194420 55 305 0.0 4.0 0.00 0.00 0.00 71 1018.0
20260503193921 55 276 0.0 6.0 0.00 0.00 0.00 71 1018.0
20260503193421 55 310 0.0 5.0 0.00 0.00 0.00 71 1018.0
20260503192920 55 292 0.0 5.0 0.00 0.00 0.00 70 1018.0
20260503192420 55 277 2.0 5.0 0.00 0.00 0.00 70 1018.0
20260503191920 56 321 0.0 4.0 0.00 0.00 0.00 68 1018.0
20260503191421 56 326 0.0 8.0 0.00 0.00 0.00 69 1018.0
20260503190920 56 306 0.0 5.0 0.00 0.00 0.00 68 1018.0
20260503190420 57 325 4.0 7.0 0.00 0.00 0.00 68 1018.0
20260503185923 57 292 2.0 4.0 0.00 0.00 0.00 67 1018.0
20260503185420 57 318 0.0 4.0 0.00 0.00 0.00 67 1018.0
20260503184921 57 300 3.0 8.0 0.00 0.00 0.00 69 1018.0
20260503184420 57 297 4.0 7.0 0.00 0.00 0.00 69 1017.0
20260503183920 57 312 4.0 8.0 0.00 0.00 0.00 67 1017.0
20260503183421 58 318 5.0 6.0 0.00 0.00 0.00 66 1017.0
20260503182924 58 323 0.0 5.0 0.00 0.00 0.00 65 1018.0
20260503182420 58 326 2.0 5.0 0.00 0.00 0.00 65 1018.0
20260503181923 59 331 0.0 6.0 0.00 0.00 0.00 63 1018.0
20260503181423 60 324 0.0 4.0 0.00 0.00 0.00 63 1017.0
20260503180920 60 325 2.0 5.0 0.00 0.00 0.00 61 1017.0
20260503180420 61 322 2.0 4.0 0.00 0.00 0.00 61 1017.0
20260503175920 62 325 0.0 3.0 0.00 0.00 0.00 59 1017.0
20260503175420 62 317 0.0 0.0 0.00 0.00 0.00 58 1017.0
20260503174920 63 325 2.0 5.0 0.00 0.00 0.00 57 1017.0
20260503174421 64 11 0.0 3.0 0.00 0.00 0.00 55 1017.0
20260503173920 64 45 0.0 0.0 0.00 0.00 0.00 53 1017.0
20260503173420 65 50 0.0 2.0 0.00 0.00 0.00 52 1017.0
20260503172920 67 72 0.0 0.0 0.00 0.00 0.00 46 1017.0
20260503172420 67 72 0.0 0.0 0.00 0.00 0.00 45 1017.0
20260503171921 67 72 0.0 0.0 0.00 0.00 0.00 45 1017.0
20260503171420 68 72 0.0 0.0 0.00 0.00 0.00 45 1017.0
20260503170923 68 72 0.0 0.0 0.00 0.00 0.00 44 1017.0
20260503170420 68 72 0.0 0.0 0.00 0.00 0.00 43 1017.0
20260503150920 75 81 8.0 10.0 0.00 0.00 0.00 37 1017.0
20260503150420 76 113 7.0 8.0 0.00 0.00 0.00 37 1017.0
20260503130920 75 117 4.0 8.0 0.00 0.00 0.00 35 1018.0
20260503130420 75 132 5.0 8.0 0.00 0.00 0.00 35 1018.0
20260503110420 75 123 7.0 8.0 0.00 0.00 0.00 36 1019.0
20260503090422 72 60 0.0 2.0 0.00 0.00 0.00 37 1020.0
20260503081419 69 218 0.0 3.0 0.00 0.00 0.00 42 1021.1
20260503080920 68 223 0.0 0.0 0.00 0.00 0.00 43 1021.1
20260503080419 68 213 0.0 3.0 0.00 0.00 0.00 44 1021.1
20260503072919 64 224 0.0 6.0 0.00 0.00 0.00 51 1021.1
20260503072421 63 285 3.0 8.0 0.00 0.00 0.00 53 1021.1
20260503071919 62 239 4.0 8.0 0.00 0.00 0.00 54 1021.1
20260503071419 62 209 0.0 0.0 0.00 0.00 0.00 55 1021.1
20260503070920 61 260 0.0 0.0 0.00 0.00 0.00 56 1021.1
20260503070420 60 219 0.0 0.0 0.00 0.00 0.00 57 1021.1
20260503054919 51 267 3.0 8.0 0.00 0.00 0.00 70 1021.1
20260503054420 50 277 6.0 8.0 0.00 0.00 0.00 71 1021.1
20260503053919 49 264 4.0 8.0 0.00 0.00 0.00 73 1021.1
20260503053419 49 277 6.0 9.0 0.00 0.00 0.00 74 1021.1
20260503052919 49 277 7.0 8.0 0.00 0.00 0.00 73 1021.1
20260503052423 48 274 5.0 8.0 0.00 0.00 0.00 73 1021.1
20260503051919 48 253 6.0 9.0 0.00 0.00 0.00 73 1021.1
20260503051419 48 274 8.0 9.0 0.00 0.00 0.00 73 1021.1
20260503050922 48 257 7.0 11.0 0.00 0.00 0.00 73 1021.1
20260503050419 48 253 5.0 9.0 0.00 0.00 0.00 74 1021.1
20260503045922 48 252 6.0 8.0 0.00 0.00 0.00 74 1021.1
20260503045419 48 240 6.0 10.0 0.00 0.00 0.00 75 1021.1
20260503044919 47 277 5.0 12.0 0.00 0.00 0.00 75 1021.1
20260503044420 47 244 8.0 10.0 0.00 0.00 0.00 76 1021.1
20260503043919 47 253 6.0 10.0 0.00 0.00 0.00 76 1021.1
20260503043419 47 276 5.0 10.0 0.00 0.00 0.00 76 1021.1
20260503042920 47 262 7.0 10.0 0.00 0.00 0.00 76 1021.1
20260503042419 47 270 5.0 8.0 0.00 0.00 0.00 76 1021.1
20260503041919 47 251 5.0 8.0 0.00 0.00 0.00 76 1021.1
20260503041420 47 245 5.0 10.0 0.00 0.00 0.00 77 1021.1
20260503040919 47 252 7.0 10.0 0.00 0.00 0.00 78 1021.1
20260503040422 47 247 4.0 8.0 0.00 0.00 0.00 78 1021.1
20260503035919 47 251 4.0 10.0 0.00 0.00 0.00 77 1021.1
20260503035419 47 265 7.0 8.0 0.00 0.00 0.00 78 1021.1
20260503034920 47 281 4.0 8.0 0.00 0.00 0.00 78 1021.1
20260503034419 47 253 6.0 9.0 0.00 0.00 0.00 78 1021.1
20260503033920 47 263 5.0 8.0 0.00 0.00 0.00 79 1021.1
20260503033420 47 251 5.0 8.0 0.00 0.00 0.00 79 1021.1
20260503032919 46 260 3.0 8.0 0.00 0.00 0.00 79 1021.1
20260503032419 46 267 6.0 9.0 0.00 0.00 0.00 79 1021.1
20260503031919 47 258 6.0 10.0 0.00 0.00 0.00 79 1021.1
20260503031419 47 258 5.0 9.0 0.00 0.00 0.00 79 1020.0
20260503030919 47 256 5.0 7.0 0.00 0.00 0.00 78 1020.0
20260503030422 47 275 4.0 8.0 0.00 0.00 0.00 78 1020.0
20260503025919 47 273 5.0 8.0 0.00 0.00 0.00 76 1021.1
20260503025419 47 306 4.0 7.0 0.00 0.00 0.00 76 1021.1
20260503024920 48 250 5.0 8.0 0.00 0.00 0.00 77 1021.1
20260503024419 48 259 6.0 8.0 0.00 0.00 0.00 76 1021.1
20260503023919 48 253 7.0 10.0 0.00 0.00 0.00 77 1021.1
20260503023420 48 273 6.0 8.0 0.00 0.00 0.00 77 1021.1
20260503022920 48 291 5.0 8.0 0.00 0.00 0.00 78 1021.1
20260503022419 48 257 5.0 8.0 0.00 0.00 0.00 78 1021.1
20260503021920 48 271 5.0 8.0 0.00 0.00 0.00 78 1021.1
20260503021419 47 254 2.0 6.0 0.00 0.00 0.00 78 1021.1
20260503020919 47 272 3.0 6.0 0.00 0.00 0.00 78 1021.1
20260503020419 47 272 5.0 7.0 0.00 0.00 0.00 78 1021.1
20260503015919 48 284 4.0 7.0 0.00 0.00 0.00 78 1021.1
20260503015419 48 258 6.0 8.0 0.00 0.00 0.00 78 1021.1
20260503014919 48 258 7.0 9.0 0.00 0.00 0.00 78 1021.1
20260503014419 48 275 6.0 7.0 0.00 0.00 0.00 78 1021.1
20260503013920 48 284 0.0 0.0 0.00 0.00 0.00 77 1021.1
20260503013419 48 301 0.0 5.0 0.00 0.00 0.00 78 1021.1
20260503012919 48 297 4.0 8.0 0.00 0.00 0.00 78 1021.1
20260503012420 48 277 5.0 7.0 0.00 0.00 0.00 78 1021.1
20260503011919 48 250 4.0 6.0 0.00 0.00 0.00 78 1021.1
20260503011420 48 283 2.0 3.0 0.00 0.00 0.00 78 1021.1
20260503010920 48 280 0.0 0.0 0.00 0.00 0.00 78 1021.1
20260503010422 48 279 0.0 6.0 0.00 0.00 0.00 76 1021.1
20260503005919 48 308 4.0 6.0 0.00 0.00 0.00 75 1021.1
20260503005419 49 273 2.0 9.0 0.00 0.00 0.00 75 1021.1
20260503004919 49 232 2.0 8.0 0.00 0.00 0.00 75 1021.1
20260503004419 49 260 5.0 8.0 0.00 0.00 0.00 75 1021.1
20260503003919 49 272 7.0 10.0 0.00 0.00 0.00 75 1021.1
20260503003419 50 261 3.0 8.0 0.00 0.00 0.00 75 1021.1
20260503002922 49 246 4.0 7.0 0.00 0.00 0.00 75 1021.1
20260503002419 49 270 0.0 5.0 0.00 0.00 0.00 75 1021.1
20260503001919 50 264 4.0 8.0 0.00 0.00 0.00 75 1021.1
20260503001419 50 265 7.0 8.0 0.00 0.00 0.00 75 1022.1
20260503000919 50 279 6.0 8.0 0.00 0.00 0.00 75 1022.1
20260503000419 49 274 5.0 9.0 0.00 0.00 0.00 75 1022.1
20260502235922 50 236 3.0 6.0 0.00 0.00 0.00 74 1022.1
20260502235419 50 234 0.0 3.0 0.00 0.00 0.00 73 1022.1
20260502234920 50 233 0.0 3.0 0.00 0.00 0.00 73 1022.1
20260502234419 50 273 0.0 3.0 0.00 0.00 0.00 73 1022.1
20260502233919 51 261 0.0 4.0 0.00 0.00 0.00 74 1022.1
20260502233422 51 264 4.0 6.0 0.00 0.00 0.00 75 1022.1
20260502232919 50 258 3.0 5.0 0.00 0.00 0.00 75 1022.1
20260502232420 50 253 0.0 4.0 0.00 0.00 0.00 75 1022.1
20260502231922 50 271 0.0 5.0 0.00 0.00 0.00 74 1022.1
20260502231419 50 257 2.0 6.0 0.00 0.00 0.00 74 1022.1
20260502230919 50 257 0.0 6.0 0.00 0.00 0.00 74 1022.1
20260502230419 51 249 4.0 8.0 0.00 0.00 0.00 75 1022.1
20260502225922 51 248 6.0 8.0 0.00 0.00 0.00 75 1022.1